リニア彗星

C/2005 G1 ( LINEAR )

English version
Home page
Updated on April 3, 2008

---------------------------------------------------------------------

・ プロフィール

発見日 2005年4月1日
発見光度 19.1等
発見者 Lincoln Laboratory Near-Earth Asteroid Research project

・ 軌道要素

The following orbital elements are taken from MPC 57131:

Epoch 2006 Mar. 6.0 TT = JDT 2453800.5
T 2006 Feb. 27.3866 TT                                  MPC
q   4.960662             (2000.0)            P               Q
z  +0.000042       Peri.  113.8254      -0.4507364      -0.3406987
 +/-0.000001       Node   299.5867      -0.1538566      +0.9401178
e   0.999792       Incl.  108.4145      +0.8792979      -0.0101467
From 259 observations 2005 Mar. 22-2006 June 30, mean residual 0".6.

・ 星図

・ 光度変化

        m1 = 7.2 + 5 logΔ + 10.0 log r

---------------------------------------------------------------------

軌道要素はMPCのEphemerides and Orbital Elementsに掲載されたものです。
星図は StellaNavigator Ver.2.0 for Windows (アストロアーツ 編著 / アスキー出版局刊) で作成したものです。
光度グラフはComet for Windowsで作成したものです。

---------------------------------------------------------------------

Copyright(C) Seiichi Yoshida (comet@aerith.net). All rights reserved.